Regional Weather Roundup
Issued by NWS

Home | Current Version | Previous Version | Graphics & Text | Print | Product List | Glossary On
Versions: 1 2 3 4 5 6 7 8 9 10 11 12 13 14 15 16 17 18 19 20 21 22 23 24 25 26 27 28 29 30 31 32 33 34 35 36 37 38 39 40 41 42 43 44 45 46 47 48 49 50
000
ASUS43 KLMK 211002
RWRKY
KENTUCKY REGIONAL WEATHER ROUNDUP
NATIONAL WEATHER SERVICE LOUISVILLE KY
600 AM EDT THU SEP 21 2017

NOTE "FAIR" INDICATES FEW OR NO CLOUDS BELOW 12,000 FEET
WITH NO SIGNIFICANT WEATHER AND/OR OBSTRUCTIONS TO VISIBILITY.

KYZ001>023-026-027-061>063-070>075-211100-
WESTERN AND SOUTH CENTRAL KENTUCKY

CITY           SKY/WX    TMP DP  RH WIND       PRES   REMARKS
PADUCAH        CLEAR     73  69  87 W3        30.02R
HENDERSON      PTCLDY    71  70  96 S3        30.03R
OWENSBORO      CLEAR     70  69  97 S3        30.04R
HOPKINSVILLE   CLEAR     70  70  98 CALM      30.05R
BOWLING GREEN  CLEAR     68  68 100 CALM      30.06R FOG
GLASGOW        NOT AVBL
$$

KYZ024-025-028>034-038-045-046-053-211100-
NORTH CENTRAL KENTUCKY

CITY           SKY/WX    TMP DP  RH WIND       PRES   REMARKS
LOUISVILLE/SDF PTCLDY    71  69  93 SE5       30.05R
LOUISVILLE/LOU CLEAR     70  70 100 CALM      30.06R FOG
FORT KNOX      CLEAR     66  66 100 CALM      30.04R
$$

KYZ035>037-039>044-047>052-055>060-089>105-211100-
NORTHEAST KENTUCKY

CITY           SKY/WX    TMP DP  RH WIND       PRES   REMARKS
LEXINGTON      CLEAR     68  65  90 SE6       30.08S
COVINGTON      PTCLDY    68  68 100 CALM      30.07R
FRANKFORT      PTCLDY    65  62  90 CALM      30.06R
$$

KYZ054-064>069-076>088-106>120-211100-
SOUTHEAST KENTUCKY

CITY           SKY/WX    TMP DP  RH WIND       PRES   REMARKS
JACKSON        CLEAR     68  64  87 CALM      30.11R
LONDON         CLEAR     65  63  93 CALM      30.10R
SOMERSET       NOT AVBL
MIDDLESBORO    FOG       64  64 100 CALM      30.13R VSB 3/4
MONTICELLO     FOG       62  62 100 CALM      30.11R VSB 1/4
$$





USA.gov is the U.S. government's official web portal to all federal, state and local government web resources and services.